Jackpot

Texas Poker Multi Jackpot System

Kini Telah hadir Jackpot SUPER ROYAL FLUSH

Kini Telah hadir Jackpot 2000 (khusus table VIP keatas).

Ikutilah global jackpot yang tersedia di system kami, dengan system jackpot terbaru dan pertama di indonesia, anda dapat membeli jackpot dengan harga 100 rupiah saja dan menangkan hadiahnya hingga puluhan juta rupiah.

Jackpot bukanlah suatu keharusan untuk dibeli, namun kami memberikan suatu fitur tambahan untuk member tercinta dari www.ikanbuntal.com.

Terdapat tiga pilihan harga jackpot yang bisa anda beli yaitu :100,500,1000 dan 2000(khusus table VIP Keatas) rupiah.

Hadiah dari Multi jackpot system www.ikanbuntal.com

  1. full house x 10 harga jackpot yang anda beli.
      (contoh:anda membeli 1000 maka:1000 X10 = 10.000)
  2. four of kind x 250 harga jackpot yang anda beli
      (contoh:anda membeli 1000 maka:1000 X250 = 250.000)
  3. Straight flush x 1200
      (contoh:anda membeli 1000 maka:1000 X1200 = 1.200.000)
  4. Royal flush x 10000 harga jackpot yang anda beli
      (contoh:anda membeli 1000 maka:1000 X10000 = 10.000.000)
  5. SUPER ROYAL FLUSH x 30000 harga jackpot yang anda beli
      (contoh:anda membeli 1000 maka:1000 X30000 = 30.000.000)

Kondisi kartu

  1. full house adalah kondisi kartu dimana kartu anda dan kartu tengah dengan total 7 kartu bisa mendapatkan nilai 5 kartu dengan kombinasi 1 tris(three of kind) dan 1 pair, contoh 3 kartu 10 dan 2 kartu 5
  2. Four of kind adalah kondisi kartu dimana kartu anda dan kartu tengah dengan total 7 kartu bisa mendapatkan nilai 5 kartu dengan kombinasi 4 kartu yang sama jumlah dan 1 kartu apapun juga contoh anda mendapatkan 4 buah kartu angka 3 dan 1 kartu apapun.
  3. Staright flush adalah kondisi kartu dimana kartu anda dan kartu tengah dengan total 7 kartu bisa mendapatkan nilai 5 kartu dengan kombinasi seri / staright dengan kembang yang sama contoh : urutan kartu dari angka 5, 6, 7, 8 , 9 10 dengan kembang yg sama misalnya as hati
  4. Royal flush adalah kondisi kartu dimana kartu anda dan kartu tengah dengan total 7 kartu bisa mendapatkan nilai 5 kartu dengan kombinasi seri / staright dengan kembang yang sama tetapi kartu tersebut haruslah dimulai dari 10. contoh 10, Queen, Jack, King dan aces dengan kembang yang sama
  5. Super Royal flush adalah kondisi kartu dimana Kedua kartu anda digabung dengan 3 kartu pertama meja haruslah royal flush. contoh kartu anda 10,Queen kembang sama dan 3 kartu pertama meja adalah Jack, King dan aces dengan kembang yang sama

Demikian adalah penjelasan dari Multi Jackpot www.ikanbuntal.com terima kasih dan selamat bermain salam hoki dari kami

Texas Poker Jackpot Winner

TOP SUPER ROYAL FLUSH
No.TanggalNamaPriceWin
124/06 17:20FAI50N9Super Royal flush6,000,000
224/06 14:14ISANASuper Royal flush6,000,000
324/06 10:18SYPHON88Super Royal flush3,000,000
424/06 09:01MONJUBOY9Super Royal flush30,000,000
524/06 07:31IRSOE24Super Royal flush30,000,000
TOP ROYAL FLUSH
No.TanggalNamaPriceWin
124/06 17:28SBTSJ_MWARRoyal flush500,000
224/06 17:24ANDIS007Royal flush10,000,000
324/06 17:23MASTON_012Royal flush5,000,000
424/06 17:11SAMBAR699Royal flush10,000,000
524/06 17:10RISINGRoyal flush10,000,000
TOP STRAIGHT FLUSH
No.TanggalNamaPriceWin
124/06 17:31B9E148D4Straight Flush600,000
224/06 17:31XSON666Straight Flush1,200,000
324/06 17:29YAYSSG33Straight Flush120,000
424/06 17:25NIKNOK22Straight Flush240,000
524/06 17:24G3MBR3Straight Flush1,200,000
LATEST JACKPOT
No.TanggalNamaPriceWin
124/06 17:31JENIH29Full House2,000
224/06 17:31LILAO99Full House20,000
324/06 17:31TB4P05XW5IFour Of A Kind25,000
424/06 17:31ZEMBUT45Full House10,000
524/06 17:31DAJJAL8889Full House10,000
624/06 17:31BOA_EDANFull House10,000
724/06 17:31AYAMTOKFull House10,000
824/06 17:31CC16BE7EFull House10,000
924/06 17:31MANONTOFull House5,000
1024/06 17:31CINGKRAKFull House5,000
1124/06 17:31QCCND6RCGOFull House2,000
1224/06 17:31B9E148D4Straight Flush600,000
1324/06 17:31FEROSA12Full House2,000
1424/06 17:31DOCTOR212Full House5,000
1524/06 17:31CK_CK200Full House2,000
1624/06 17:31PAPUNGAJA2Full House5,000
1724/06 17:31QIAN77Four Of A Kind125,000
1824/06 17:31M4D4RA14Four Of A Kind25,000
1924/06 17:31YX4355JMPKFour Of A Kind125,000
2024/06 17:31KATEEGOFour Of A Kind125,000
2124/06 17:31MAESTRO099Full House1,000
2224/06 17:31RENDY881Full House1,000
2324/06 17:31BLNK83647Full House1,000
2424/06 17:31BROZOL007Full House2,000
2524/06 17:31ANAKBATAK5Full House1,000
2624/06 17:31CUNEKLOPEHFull House2,000
2724/06 17:31ZHIEH_13Full House5,000
2824/06 17:31NAGAPODTFull House2,000
2924/06 17:31SXFKLTL0FQFull House2,000
3024/06 17:31CANGKAL88Full House5,000
3124/06 17:31XSON666Straight Flush1,200,000
3224/06 17:31Y1L061WVE7Full House1,000
3324/06 17:31LILAO99Full House20,000
3424/06 17:31SAMMSOE234Full House2,000
3524/06 17:31B3350TFull House2,000
3624/06 17:31HAUS7777Full House10,000
3724/06 17:31GUNDALA19Full House1,000
3824/06 17:30MASJUN90Full House1,000
3924/06 17:30DWTDAVE24Full House2,000
4024/06 17:30POTATO1Full House2,000
4124/06 17:30JZZ_ASFull House20,000
4224/06 17:30LACETOL123Full House2,000
4324/06 17:30F9B14E62Full House5,000
4424/06 17:30B_5YUKURFull House5,000
4524/06 17:30LUCKYBOY79Full House2,000
4624/06 17:30TEMPENGFour Of A Kind50,000
4724/06 17:30SULTAN30Full House10,000
4824/06 17:30XDFTFull House2,000
4924/06 17:30NQNL0I23Z6Full House1,000
5024/06 17:30Z3LLS77Full House2,000

Domino Multi Jackpot System

Ikutilah global jackpot yang tersedia di system kami, dengan system jackpot terbaru dan pertama di indonesia, anda dapat membeli jackpot dengan harga 100 rupiah saja dan menangkan hadiahnya hingga puluhan juta rupiah.

Jackpot bukanlah suatu keharusan untuk dibeli, namun kami memberikan suatu fitur tambahan untuk member tercinta dari www.ikanbuntal.com.

Terdapat tiga pilihan harga jackpot yang bisa anda beli yaitu :100,500 dan 1000 rupiah.

Hadiah dari Multi jackpot system www.ikanbuntal.com

  1. Murni Kecil x 50 harga jackpot yang anda beli.
      (contoh:anda membeli 1000 maka:1000 X 50 = 50.000)
  2. Murni Besar x 50 harga jackpot yang anda beli
      (contoh:anda membeli 1000 maka:1000 X 50 = 50.000)
  3. BALAK x 100 harga jackpot yang anda beli
      (contoh:anda membeli 1000 maka:1000 X 100 = 100.000)
  4. ENAM DEWA x 6666 harga jackpot yang anda beli
      (contoh:anda membeli 1000 maka:1000 X 6666 = 6.666.000)

Demikian adalah penjelasan dari Multi Jackpot www.ikanbuntal.com terima kasih dan selamat bermain salam hoki dari kami

Domino Jackpot Winner

TOP ENAM DEWA
No.TanggalNamaPriceWin
124/06 16:54DKH099murni enam6,666,000
224/06 12:28RUFI123murni enam666,600
324/06 10:33RUSMA12murni enam6,666,000
424/06 08:44DK2272murni enam6,666,000
524/06 05:24FUZIGOKImurni enam3,333,000
TOP BALAK
No.TanggalNamaPriceWin
124/06 17:31T212F4WZ3Nbalak100,000
224/06 17:29E9CA8FA7balak10,000
324/06 17:23BEGO2balak10,000
424/06 17:20JENN1U5balak100,000
524/06 17:19BERNICE23balak100,000
LATEST JACKPOT
No.TanggalNamaPriceWin
124/06 17:31T212F4WZ3Nbalak100,000
224/06 17:30JEKRO45murni kecil25,000
324/06 17:30K4R1N409murni kecil25,000
424/06 17:29E9CA8FA7balak10,000
524/06 17:28INAYAH93murni kecil25,000
624/06 17:28FX0AVZDF8Hmurni kecil25,000
724/06 17:27ADIKJAILlucky992,500
824/06 17:26B5D11murni besar50,000
924/06 17:26MESTAIYA30murni kecil25,000
1024/06 17:26MERITA15murni besar25,000
1124/06 17:26IKI7murni besar50,000
1224/06 17:26QFFO8AJNZOmurni kecil5,000
1324/06 17:26HDA242murni kecil50,000
1424/06 17:26ARLAN303lucky992,500
1524/06 17:26TOMPELOO1lucky9950,000
1624/06 17:25SABUR09murni kecil50,000
1724/06 17:25AANS4KT1murni besar25,000
1824/06 17:25TOTOK_85murni besar50,000
1924/06 17:25VALDO017murni besar25,000
2024/06 17:24OO2BB8IG4Fmurni besar5,000
2124/06 17:23BEGO2balak10,000
2224/06 17:23DJHERRYmurni kecil50,000
2324/06 17:20DM82997murni besar25,000
2424/06 17:20JENN1U5balak100,000
2524/06 17:20AFTAPUTRImurni kecil5,000
2624/06 17:19CARULAS099murni besar25,000
2724/06 17:19BERNICE23balak100,000
2824/06 17:18MDRLOGEN46murni besar50,000
2924/06 17:18JONISEX69murni kecil25,000
3024/06 17:18HIUWHITEmurni kecil5,000
3124/06 17:17ELANG534murni besar50,000
3224/06 17:17BXU4HETHYImurni besar5,000
3324/06 17:16ARMIN888ARmurni kecil25,000
3424/06 17:16EDENMARCmurni besar5,000
3524/06 17:16POCH227murni kecil5,000
3624/06 17:15TAR1K_J3P3murni besar25,000
3724/06 17:15YAPRILlucky992,500
3824/06 17:15GOTAK69murni besar50,000
3924/06 17:14WIRO8212murni besar50,000
4024/06 17:13LIBERTYLbalak100,000
4124/06 17:12GIBUG789balak100,000
4224/06 17:11PAKANTAN02murni besar5,000
4324/06 17:11DIEWDIEWmurni kecil5,000
4424/06 17:10INDRA0101murni kecil50,000
4524/06 17:10GOTAK69balak100,000
4624/06 17:10KOMPALAGImurni kecil50,000
4724/06 17:09TITO6997murni kecil50,000
4824/06 17:09Z3SA10murni besar5,000
4924/06 17:08TUYULSARDElucky992,500
5024/06 17:08AXZ438murni besar50,000

Ceme Multi Jackpot System

Jackpot dilihat dari gabungan kartu pemain dengan kartu bandar. Bandar harus membeli jackpot sebanyak jumlah player yang sedang duduk. Sebagai contoh bila terdapat 3 pemain duduk bermain, dan bandar memutuskan untuk membeli jackpot Rp 1.000, maka pada periode tersebut bandar akan membeli jackpot sebanyak 3xRp1.000 = Rp3.000.

Jackpot bukanlah suatu keharusan untuk dibeli, namun kami memberikan suatu fitur tambahan untuk member tercinta dari www.ikanbuntal.com.

Terdapat tiga pilihan harga jackpot yang bisa anda beli yaitu :100,500 dan 1000 rupiah.

Hadiah dari Multi jackpot system www.ikanbuntal.com

  1. Murni Kecil x 50 harga jackpot yang anda beli.
      (contoh:anda membeli 1000 maka:1000 X 50 = 50.000)
  2. Murni Besar x 50 harga jackpot yang anda beli
      (contoh:anda membeli 1000 maka:1000 X 50 = 50.000)
  3. BALAK x 200 harga jackpot yang anda beli
      (contoh:anda membeli 1000 maka:1000 X 200 = 200.000)
  4. ENAM DEWA x 6666 harga jackpot yang anda beli
      (contoh:anda membeli 1000 maka:1000 X 6666 = 6.666.000)

Demikian adalah penjelasan dari Multi Jackpot www.ikanbuntal.com terima kasih dan selamat bermain salam hoki dari kami

Ceme Jackpot Winner

TOP ENAM DEWA
No.TanggalNamaPriceWin
124/06 16:58AN3YASPKmurni enam3,333,000
224/06 16:58DREDETANmurni enam6,666,000
324/06 16:58FAREL2090murni enam6,666,000
424/06 16:54AKAW123murni enam6,666,000
524/06 16:54A5816187murni enam3,333,000
TOP BALAK
No.TanggalNamaPriceWin
124/06 17:29NOVA_77balak200,000
224/06 17:29RZL240611balak200,000
324/06 17:29NACAA26balak200,000
424/06 17:29GALUHH51balak100,000
524/06 17:29LANZAXbalak200,000
LATEST JACKPOT
No.TanggalNamaPriceWin
124/06 17:31ZCBV808murni kecil5,000
224/06 17:31MARKONAH2murni kecil50,000
324/06 17:31BOUYDER1murni besar50,000
424/06 17:31SAM63murni besar25,000
524/06 17:31J3P3TRUSmurni besar50,000
624/06 17:31MOCHROFIIHmurni kecil50,000
724/06 17:31BADRI1208murni kecil50,000
824/06 17:31WOULES808murni kecil50,000
924/06 17:30WEDUS4567murni besar50,000
1024/06 17:30ZAM_ZURTmurni besar50,000
1124/06 17:30QINOYYYmurni besar50,000
1224/06 17:30SO96IU5SY3murni besar5,000
1324/06 17:30MBELUNG86murni besar50,000
1424/06 17:30ACAI800murni besar50,000
1524/06 17:30MBELUNG86murni besar50,000
1624/06 17:30IPUNGSABELmurni besar25,000
1724/06 17:30GIGOLOQIUmurni besar50,000
1824/06 17:30MANAPCOOLmurni besar50,000
1924/06 17:30MANJPJPmurni besar50,000
2024/06 17:30OJOGUYUmurni besar50,000
2124/06 17:30TAMAN01murni besar50,000
2224/06 17:30G4SH0K1murni kecil25,000
2324/06 17:30KAINCABIAKmurni kecil50,000
2424/06 17:29NOVA_77balak200,000
2524/06 17:29RZL240611balak200,000
2624/06 17:29MITU23murni kecil50,000
2724/06 17:29MFREYAmurni kecil50,000
2824/06 17:29NACAA26balak200,000
2924/06 17:29GALUHH51balak100,000
3024/06 17:29PRIASmurni kecil5,000
3124/06 17:29LANZAXbalak200,000
3224/06 17:29QZ0JO57BG0balak100,000
3324/06 17:29ZHOAY73balak200,000
3424/06 17:29NOVA_77murni besar50,000
3524/06 17:29ARYGESEKmurni besar50,000
3624/06 17:29AYENN88balak100,000
3724/06 17:29OJOGUYUmurni kecil50,000
3824/06 17:28FAYZA28murni besar25,000
3924/06 17:28A983R960murni kecil25,000
4024/06 17:28BERT303murni kecil25,000
4124/06 17:28BAJINDULQQmurni kecil25,000
4224/06 17:28CUPIK77murni kecil50,000
4324/06 17:28IKHWAN880murni besar5,000
4424/06 17:28JASYARAmurni kecil25,000
4524/06 17:28BANYULNGITmurni kecil50,000
4624/06 17:28AWAN402murni besar25,000
4724/06 17:28SEUNGKO9balak100,000
4824/06 17:28HADIZ897balak200,000
4924/06 17:28SEUNGKO9murni kecil25,000
5024/06 17:28BUNGAPKR88murni kecil50,000